Weather History for Douglas, WY

Change the Weather History Date:

Friday, October 25, 2013

  Actual Average Record
Temperature  
Mean Temperature 48 °F 43 °F  
Max Temperature 68 °F 58 °F 76 °F (2007)
Min Temperature 27 °F 28 °F 12 °F (2012)
Degree Days  
Heating Degree Days 17 22  
Month to date heating degree days 536 457  
Since 1 July heating degree days 674 726  
Cooling Degree Days 0 0  
Month to date cooling degree days 0 0  
Year to date cooling degree days 739 486  
Moisture  
Dew Point 30 °F    
Average Humidity 62    
Maximum Humidity 100    
Minimum Humidity 24    
Precipitation  
Precipitation 0.00 in 0.02 in 0.28 in (2010)
Month to date precipitation 0.01 0.94  
Year to date precipitation 7.27 12.22  
Sea Level Pressure  
Sea Level Pressure 30.18 in    
Wind  
Wind Speed 7 mph (NW)    
Max Wind Speed 21 mph    
Max Gust Speed 25 mph    
Visibility 6 miles    
Events Fog    
T = Trace of Precipitation, MM = Missing Value Source: NWS Daily Summary

Daily Weather History Graph

Daily Weather History Graph

Search for Another Location

Airport:

Trip Planner

Search our weather history database for the weather conditions in past years. The results will help you decide how hot, cold, wet, or windy it might be!

Date:

Astronomy

Oct. 25, 2013 Rise Set
Actual Time 7:27 AM MDT 6:03 PM MDT
Civil Twilight 6:58 AM MDT 6:32 PM MDT
Nautical Twilight 6:25 AM MDT 7:05 PM MDT
Astronomical Twilight 5:52 AM MDT 7:37 PM MDT
Moon 11:23 PM MDT (10/25) 1:11 PM MDT (10/25)
Length of Visible Light 11h 33m
Length of Day
10h 35m
Waning Gibbous, 62% of the Moon is Illuminated
Oct 25
Waning Gibbous
Oct 26
Last Quarter
Nov 3
New
Nov 9
First Quarter
Nov 17
Full

Hourly Weather History & Observations

Time (MDT) Temp. Windchill Dew Point Humidity Pressure Visibility Wind Dir Wind Speed Gust Speed Precip Events Conditions
12:53 AM 37.9 °F - 34.0 °F 86% 30.17 in 10.0 mi Calm Calm - N/A   Clear
1:53 AM 35.1 °F - 33.1 °F 92% 30.17 in 10.0 mi Calm Calm - N/A   Clear
2:53 AM 34.0 °F - 32.0 °F 92% 30.17 in 9.0 mi Calm Calm - N/A   Clear
3:47 AM 30.2 °F 26.7 °F 28.4 °F 93% 30.19 in 1.8 mi WNW 3.5 mph - N/A   Partly Cloudy
3:49 AM 30.2 °F - 28.4 °F 93% 30.19 in 0.8 mi Calm Calm - N/A   Mist
3:53 AM 30.0 °F - 30.0 °F 100% 30.18 in 0.2 mi Calm Calm - N/A Fog Light Freezing Fog
4:39 AM 30.2 °F 26.7 °F 28.4 °F 93% 30.18 in 1.5 mi North 3.5 mph - N/A   Mostly Cloudy
4:48 AM 30.2 °F - 28.4 °F 93% 30.18 in 1.0 mi Calm Calm - N/A   Mist
4:53 AM 28.9 °F - 28.0 °F 96% 30.18 in 0.5 mi Calm Calm - N/A Fog Light Freezing Fog
5:01 AM 30.2 °F 26.7 °F 28.4 °F 93% 30.18 in 1.2 mi NNE 3.5 mph - N/A   Clear
5:04 AM 30.2 °F 26.7 °F 28.4 °F 93% 30.18 in 3.0 mi NNE 3.5 mph - N/A   Clear
5:53 AM 28.9 °F 25.2 °F 28.0 °F 96% 30.20 in 6.0 mi NNW 3.5 mph - N/A   Clear
6:00 AM 28.4 °F 23.3 °F 28.4 °F 100% 30.18 in 3.0 mi NNW 4.6 mph - N/A   Scattered Clouds
6:02 AM 28.4 °F 23.3 °F 28.4 °F 100% 30.18 in 1.8 mi NNW 4.6 mph - N/A   Scattered Clouds
6:07 AM 28.4 °F - 26.6 °F 93% 30.18 in 0.8 mi Calm Calm - N/A   Mist
6:22 AM 28.4 °F 24.6 °F 26.6 °F 93% 30.17 in 1.2 mi West 3.5 mph - N/A   Mostly Cloudy
6:27 AM 28.4 °F - 26.6 °F 93% 30.17 in 3.0 mi Calm Calm - N/A   Mostly Cloudy
6:41 AM 28.4 °F 24.6 °F 28.4 °F 100% 30.17 in 1.8 mi WNW 3.5 mph - N/A   Overcast
6:48 AM 28.4 °F 24.6 °F 26.6 °F 93% 30.17 in 0.8 mi NW 3.5 mph - N/A   Mist
6:53 AM 28.9 °F 23.9 °F 27.0 °F 92% 30.20 in 0.2 mi NNW 4.6 mph - N/A Fog Light Freezing Fog
7:23 AM 28.4 °F 19.7 °F 26.6 °F 93% 30.16 in 2.5 mi North 9.2 mph - N/A   Scattered Clouds
7:30 AM 30.2 °F 23.4 °F 28.4 °F 93% 30.16 in 5.0 mi North 6.9 mph - N/A   Scattered Clouds
7:53 AM 30.0 °F 25.2 °F 28.0 °F 92% 30.21 in 6.0 mi NW 4.6 mph - N/A   Clear
8:53 AM 36.0 °F 32.1 °F 34.0 °F 93% 30.20 in 9.0 mi North 4.6 mph - N/A   Clear
9:53 AM 42.1 °F 39.2 °F 37.0 °F 82% 30.18 in 10.0 mi NNW 4.6 mph - N/A   Clear
10:53 AM 54.0 °F - 37.9 °F 55% 30.13 in 10.0 mi WNW 10.4 mph - N/A   Clear
11:53 AM 61.0 °F - 35.1 °F 38% 30.10 in 10.0 mi WNW 18.4 mph 24.2 mph N/A   Clear
12:53 PM 64.0 °F - 35.1 °F 34% 30.09 in 10.0 mi WNW 18.4 mph - N/A   Clear
1:53 PM 66.0 °F - 32.0 °F 28% 30.08 in 10.0 mi WNW 12.7 mph - N/A   Clear
2:53 PM 66.9 °F - 28.9 °F 24% 30.07 in 10.0 mi NNW 16.1 mph 23.0 mph N/A   Clear
3:53 PM 66.9 °F - 28.0 °F 23% 30.09 in 10.0 mi NNW 12.7 mph - N/A   Clear
4:53 PM 64.0 °F - 28.0 °F 26% 30.12 in 10.0 mi North 13.8 mph - N/A   Clear
5:53 PM 57.9 °F - 32.0 °F 37% 30.17 in 10.0 mi North 8.1 mph - N/A   Clear
6:53 PM 51.1 °F - 33.1 °F 50% 30.22 in 10.0 mi NNW 6.9 mph - N/A   Clear
7:53 PM 45.0 °F 41.2 °F 33.1 °F 63% 30.26 in 10.0 mi WNW 6.9 mph - N/A   Clear
8:53 PM 45.0 °F 42.6 °F 33.1 °F 63% 30.26 in 10.0 mi NW 4.6 mph - N/A   Clear
9:53 PM 39.0 °F 33.4 °F 32.0 °F 76% 30.28 in 10.0 mi WNW 8.1 mph - N/A   Clear
10:53 PM 42.1 °F 36.1 °F 33.1 °F 70% 30.25 in 10.0 mi West 10.4 mph - N/A   Clear
11:53 PM 39.9 °F 35.8 °F 33.1 °F 77% 30.24 in 10.0 mi WNW 5.8 mph - N/A   Clear